When you browse on this site, cookies collect data to enhance your experience and personalize the content and advertising you see.
Visit our Privacy Policy to learn more. By continuing to use the site, you agree to this use of cookies and data.
  • In Austria
  • List of Countries
  • For 7 days
  • Water Temperature
  • Satellite Maps
  • Weather Map
  • News
  • Weather Widgets
  • user-avatar
    Login

    Hourly Weather Pieski

    Today, 21 February, Thursday

    Time Temperature Precipitation Wind Pressure Humidity
    00:00 +6°C° 0 mm 2 mps 759 mmHg 87%
    01:00 +5°C° 0 mm 2 mps 759 mmHg 89%
    02:00 +5°C° 0 mm 2 mps 759 mmHg 88%
    03:00 +4°C° 0 mm 3 mps 759 mmHg 87%
    04:00 +4°C° 0 mm 3 mps 759 mmHg 85%
    05:00 +4°C° 0 mm 3 mps 759 mmHg 85%
    06:00 +4°C° 0 mm 3 mps 759 mmHg 84%
    07:00 +4°C° 0 mm 3 mps 759 mmHg 84%
    08:00 +5°C° 0 mm 4 mps 759 mmHg 82%
    09:00 +5°C° 0 mm 4 mps 759 mmHg 81%
    10:00 +5°C° 0 mm 5 mps 759 mmHg 79%
    11:00 +6°C° 0.2 mm 5 mps 758 mmHg 78%
    12:00 +6°C° 0.2 mm 5 mps 758 mmHg 78%
    13:00 +6°C° 0.2 mm 5 mps 758 mmHg 77%
    14:00 +7°C° 0 mm 5 mps 758 mmHg 75%
    15:00 +7°C° 0 mm 5 mps 758 mmHg 74%
    16:00 +8°C° 0 mm 5 mps 758 mmHg 73%
    17:00 +8°C° 0.1 mm 5 mps 758 mmHg 77%
    18:00 +7°C° 0.1 mm 5 mps 758 mmHg 81%
    19:00 +7°C° 0.1 mm 5 mps 757 mmHg 85%
    20:00 +7°C° 0.1 mm 5 mps 758 mmHg 86%
    21:00 +7°C° 0.1 mm 5 mps 758 mmHg 88%
    22:00 +7°C° 0.1 mm 4 mps 758 mmHg 89%
    23:00 +7°C° 0.3 mm 4 mps 758 mmHg 89%

    Tomorrow, 22 February, Friday

    Time Temperature Precipitation Wind Pressure Humidity
    00:00 +7°C° 0.3 mm 4 mps 758 mmHg 90%
    01:00 +7°C° 0.3 mm 5 mps 759 mmHg 90%
    02:00 +6°C° 0.1 mm 5 mps 759 mmHg 89%
    03:00 +6°C° 0.1 mm 5 mps 760 mmHg 89%
    04:00 +6°C° 0.1 mm 5 mps 760 mmHg 88%
    05:00 +3°C° 0 mm 5 mps 761 mmHg 85%
    06:00 +2°C° 0 mm 5 mps 763 mmHg 83%
    07:00 0°C° 0 mm 5 mps 764 mmHg 80%
    08:00 0°C° 0 mm 5 mps 765 mmHg 75%
    09:00 0°C° 0 mm 4 mps 766 mmHg 70%
    10:00 0°C° 0 mm 4 mps 767 mmHg 65%
    11:00 +1°C° 0 mm 4 mps 768 mmHg 58%
    12:00 +1°C° 0 mm 4 mps 768 mmHg 51%
    13:00 +3°C° 0 mm 3 mps 769 mmHg 44%
    14:00 +3°C° 0 mm 3 mps 769 mmHg 43%
    15:00 +3°C° 0 mm 3 mps 770 mmHg 42%
    16:00 +3°C° 0 mm 3 mps 770 mmHg 41%
    17:00 +3°C° 0 mm 2 mps 771 mmHg 45%
    18:00 +2°C° 0 mm 2 mps 771 mmHg 49%
    19:00 +2°C° 0 mm 1 mps 772 mmHg 54%
    20:00 -1°C° 0 mm 2 mps 772 mmHg 54%
    21:00 -1°C° 0 mm 2 mps 772 mmHg 55%
    22:00 -2°C° 0 mm 2 mps 773 mmHg 56%
    23:00 -2°C° 0 mm 2 mps 773 mmHg 54%

    Day after tomorrow, 23 February, Saturday

    Time Temperature Precipitation Wind Pressure Humidity
    00:00 -2°C° 0 mm 2 mps 773 mmHg 53%
    01:00 -2°C° 0 mm 2 mps 773 mmHg 51%
    02:00 -2°C° 0 mm 2 mps 773 mmHg 51%
    03:00 -2°C° 0 mm 2 mps 773 mmHg 51%
    04:00 0°C° 0 mm 1 mps 773 mmHg 50%
    05:00 0°C° 0 mm 1 mps 773 mmHg 50%
    06:00 0°C° 0 mm 1 mps 773 mmHg 51%
    07:00 -1°C° 0 mm 1 mps 773 mmHg 51%
    08:00 0°C° 0 mm 1 mps 773 mmHg 46%
    09:00 -1°C° 0 mm 2 mps 773 mmHg 42%
    10:00 +1°C° 0 mm 2 mps 774 mmHg 37%
    11:00 +2°C° 0 mm 2 mps 774 mmHg 34%
    12:00 +4°C° 0 mm 1 mps 773 mmHg 31%
    13:00 +5°C° 0 mm 1 mps 773 mmHg 27%
    14:00 +5°C° 0 mm 1 mps 773 mmHg 28%
    15:00 +5°C° 0 mm 1 mps 773 mmHg 29%
    16:00 +5°C° 0 mm 1 mps 772 mmHg 30%
    17:00 +4°C° 0 mm 1 mps 772 mmHg 33%
    18:00 +2°C° 0 mm 1 mps 772 mmHg 36%
    19:00 +1°C° 0 mm 1 mps 772 mmHg 39%
    20:00 +1°C° 0 mm 1 mps 772 mmHg 39%
    21:00 +1°C° 0 mm 1 mps 772 mmHg 40%
    22:00 +1°C° 0 mm 1 mps 772 mmHg 40%
    23:00 +1°C° 0 mm 1 mps 772 mmHg 41%

    24 February, Sunday

    Time Temperature Precipitation Wind Pressure Humidity
    00:00 +1°C° 0 mm 1 mps 772 mmHg 41%
    01:00 +1°C° 0 mm 1 mps 771 mmHg 42%
    02:00 +1°C° 0 mm 1 mps 771 mmHg 42%
    03:00 +1°C° 0 mm 1 mps 771 mmHg 42%
    04:00 +1°C° 0 mm 1 mps 770 mmHg 42%
    05:00 +1°C° 0 mm 1 mps 770 mmHg 42%
    06:00 +1°C° 0 mm 1 mps 770 mmHg 43%
    07:00 +1°C° 0 mm 1 mps 770 mmHg 43%
    08:00 +2°C° 0 mm 1 mps 770 mmHg 41%
    09:00 +3°C° 0 mm 2 mps 770 mmHg 38%
    10:00 +4°C° 0 mm 2 mps 770 mmHg 36%
    11:00 +5°C° 0 mm 2 mps 769 mmHg 37%
    12:00 +6°C° 0 mm 2 mps 769 mmHg 37%
    13:00 +7°C° 0 mm 3 mps 769 mmHg 38%
    14:00 +7°C° 0 mm 3 mps 768 mmHg 41%
    15:00 +8°C° 0 mm 3 mps 768 mmHg 45%
    16:00 +8°C° 0 mm 3 mps 768 mmHg 48%
    17:00 +7°C° 0 mm 3 mps 768 mmHg 53%
    18:00 +5°C° 0 mm 3 mps 767 mmHg 58%
    19:00 +4°C° 0 mm 3 mps 767 mmHg 63%
    20:00 +3°C° 0 mm 3 mps 767 mmHg 67%
    21:00 +3°C° 0 mm 3 mps 767 mmHg 71%
    22:00 +3°C° 0 mm 3 mps 767 mmHg 75%
    23:00 +2°C° 0 mm 3 mps 767 mmHg 82%

    25 February, Monday

    Time Temperature Precipitation Wind Pressure Humidity
    00:00 +2°C° 0 mm 3 mps 767 mmHg 88%
    01:00 +2°C° 0 mm 3 mps 768 mmHg 94%
    02:00 +2°C° 0 mm 3 mps 768 mmHg 95%
    03:00 +3°C° 0 mm 2 mps 768 mmHg 96%
    04:00 +3°C° 0 mm 2 mps 768 mmHg 97%
    05:00 +3°C° 0 mm 2 mps 769 mmHg 97%
    06:00 +2°C° 0 mm 2 mps 769 mmHg 97%
    07:00 +2°C° 0 mm 2 mps 770 mmHg 96%
    08:00 +3°C° 0 mm 2 mps 770 mmHg 89%
    09:00 +5°C° 0 mm 2 mps 771 mmHg 82%
    10:00 +6°C° 0 mm 2 mps 771 mmHg 74%
    11:00 +7°C° 0 mm 2 mps 771 mmHg 64%
    12:00 +9°C° 0 mm 1 mps 771 mmHg 53%
    13:00 +11°C° 0 mm 1 mps 771 mmHg 43%
    14:00 +11°C° 0 mm 1 mps 771 mmHg 43%
    15:00 +11°C° 0 mm 1 mps 770 mmHg 43%
    16:00 +11°C° 0 mm 1 mps 770 mmHg 44%
    17:00 +9°C° 0 mm 1 mps 770 mmHg 49%
    18:00 +7°C° 0 mm 2 mps 770 mmHg 55%
    19:00 +6°C° 0 mm 2 mps 770 mmHg 61%
    20:00 +5°C° 0 mm 2 mps 770 mmHg 66%
    21:00 +5°C° 0 mm 2 mps 769 mmHg 71%
    22:00 +4°C° 0 mm 2 mps 769 mmHg 75%
    23:00 +4°C° 0 mm 2 mps 769 mmHg 80%

    26 February, Tuesday

    Time Temperature Precipitation Wind Pressure Humidity
    00:00 +3°C° 0 mm 2 mps 768 mmHg 85%
    01:00 +3°C° 0 mm 2 mps 768 mmHg 90%
    02:00 +2°C° 0 mm 3 mps 767 mmHg 90%
    03:00 +2°C° 0 mm 3 mps 766 mmHg 90%
    04:00 +2°C° 0 mm 3 mps 766 mmHg 90%
    05:00 +2°C° 0 mm 3 mps 765 mmHg 91%
    06:00 +1°C° 0 mm 3 mps 765 mmHg 92%
    07:00 +1°C° 0 mm 3 mps 765 mmHg 93%
    08:00 +2°C° 0 mm 3 mps 764 mmHg 87%
    09:00 +4°C° 0 mm 4 mps 764 mmHg 81%
    10:00 +5°C° 0 mm 4 mps 764 mmHg 75%
    11:00 +7°C° 0 mm 4 mps 764 mmHg 69%
    12:00 +8°C° 0 mm 4 mps 763 mmHg 62%
    13:00 +11°C° 0 mm 4 mps 763 mmHg 56%
    14:00 +10°C° 0 mm 5 mps 762 mmHg 56%
    15:00 +10°C° 0 mm 5 mps 762 mmHg 56%
    16:00 +12°C° 0 mm 5 mps 761 mmHg 56%
    17:00 +10°C° 0 mm 5 mps 761 mmHg 61%
    18:00 +10°C° 0 mm 4 mps 761 mmHg 66%
    19:00 +8°C° 0 mm 4 mps 761 mmHg 71%
    20:00 +7°C° 0 mm 4 mps 761 mmHg 74%
    21:00 +7°C° 0 mm 3 mps 761 mmHg 77%
    22:00 +7°C° 0 mm 3 mps 761 mmHg 80%
    23:00 +5°C° 0 mm 3 mps 761 mmHg 84%
    Show more